Location: Helsinki
(60.1699°N, 24.9384°E)
Time: 20:02:23
(UTC+02:00)

Transit 2A Rocket - Pass Details

Date: 30 September 2023
Orbit: 593 x 903 km, 66.7° (Epoch: 28 November)

Event Time Altitude Azimuth Distance (km) Brightness Sun altitude
Rises 16:57:59 0° 247° (WSW) 3,229 10.2 13.2°
Reaches altitude 10° 17:00:30 10° 251° (WSW) 2,253 9.7 12.9°
Maximum altitude 17:05:33 60° 332° (NNW) 800 5.3 12.4°
Drops below altitude 10° 17:10:11 10° 53° (NE) 2,071 6.7 11.9°
Sets 17:12:26 0° 57° (ENE) 2,945 7.4 11.6°
